[[{"header":{"parameterUnit":"m.s-1","parameterCategory":1,"la1":30.2991,"la2":30.254,"lo1":-89.0895,"lo2":-89.0444,"dy":0.0017,"dx":0.0017,"nx":28,"ny":28,"refTime":"2025-08-31T09:00:00:Z","depth":0,"parameterNumber":2,"parameterNumberName":"U-component_of_WINDS"},"data":[0,0,0,0,0,0,0,0,0,0,0,0,0,0,0,0,0,0,0,0,0,0,0,0,0,0,0,0,0,0,0,0,0,0,0,0,0,0,0,0,0,0,0,0,0,0,0,0,0,0,0,0,0,0,0,0,0,0,-3.7932,-3.7933,0,-3.7988,-3.7989,-3.799,-3.7888,-3.7884,-3.7881,-3.7878,-3.7938,-3.7943,-3.7948,0,0,0,0,0,0,0,0,0,0,0,0,0,-3.7741,-3.7745,-3.7932,-3.7933,-3.7933,-3.7988,-3.7989,-3.799,-3.7888,-3.7884,-3.788,-3.7876,-3.7937,-3.7942,-3.7948,0,0,0,0,0,0,0,0,0,0,0,0,0,-3.7813,-3.7746,-3.7932,-3.7889,-3.7886,-3.7988,-3.7989,-3.799,-3.7889,-3.7884,-3.7879,-3.7874,-3.7935,-3.7942,-3.7949,-3.8096,0,0,-3.7971,-3.7974,0,0,0,0,0,0,0,0,-3.7809,-3.782,-3.7895,-3.7892,-3.7889,-3.7926,-3.7944,-3.8026,-3.789,-3.7888,-3.7877,-3.7872,-3.7938,-3.7945,-3.7967,-3.8099,-3.8101,-3.7971,-3.7976,-3.7979,-3.7981,0,0,0,0,0,0,0,-3.7804,-3.7817,-3.7954,-3.7896,-3.7892,-3.7869,-3.7873,-3.7959,-3.7941,-3.7888,-3.7881,-3.7888,-3.7936,-3.796,-3.7968,-3.8102,-3.7971,-3.7978,-3.7982,-3.7985,-3.8361,-3.8366,0,0,0,0,0,0,-3.7804,-3.7814,-3.7952,-3.7956,-3.7835,-3.7876,-3.7881,-3.7919,-3.794,-3.7938,-3.7893,-3.7884,-3.795,-3.7959,-3.7969,-3.8144,-3.7979,-3.7986,-3.799,-3.8355,-3.8362,-3.8368,0,0,0,0,0,0,-3.78,-3.7817,-3.795,-3.7883,-3.7898,-3.7885,-3.7928,-3.7923,-3.7947,-3.7944,-3.7941,-3.7921,-3.7947,-3.7959,-3.8066,-3.8145,-3.7989,-3.7995,-3.8349,-3.8357,-3.8365,-3.8495,0,0,0,0,0,0,-3.7795,-3.7817,-3.7871,-3.7885,-3.7902,-3.8045,-3.7933,-3.7928,-3.7959,-3.7948,-3.7969,-3.7968,-3.7944,-3.8056,-3.8073,-3.8152,-3.8001,-3.8341,-3.8353,-3.8363,-3.8484,-3.8507,-3.8527,0,0,0,0,0,-3.7789,-3.7905,-3.7874,-3.7892,-3.797,-3.8049,-3.8059,-3.8028,-3.7966,-3.8022,-3.802,-3.7967,-3.8134,-3.8067,-3.8086,-3.8169,-3.8336,-3.8349,-3.8362,-3.8474,-3.8502,-3.8526,0,0,0,0,0,0,-3.7901,-3.7906,-3.7872,-3.7996,-3.8023,-3.8032,-3.8101,-3.8059,-3.8105,-3.8092,-3.8053,-3.8058,-3.8174,-3.8182,-3.8107,-3.8314,-3.8225,-3.8242,-3.8304,-3.8331,-3.8352,-3.8348,-3.8007,0,0,0,0,0,-3.7941,-3.8004,-3.8005,-3.8115,-3.813,-3.8114,-3.8147,-3.8121,-3.8148,-3.8159,-3.8165,-3.8194,-3.8253,-3.8292,-3.8346,-3.8485,-3.8489,-3.8551,-3.8573,-3.8591,-3.8606,-3.8682,-3.871,-3.841,-3.841,-3.841,0,0,-3.8022,-3.8033,-3.8075,-3.8138,-3.8155,-3.8223,-3.8124,-3.8199,-3.8249,-3.817,-3.8271,-3.8278,-3.8307,-3.8431,-3.8486,-3.8442,-3.869,-3.8607,-3.8621,-3.8627,-3.8698,-3.8727,-3.8752,-3.8419,-3.8417,-3.8416,0,0,-3.8205,-3.8219,-3.8313,-3.8334,-3.8362,-3.8351,-3.8374,-3.839,-3.839,-3.8491,-3.8434,-3.8495,-3.8596,-3.8621,-3.8646,-3.8843,-3.8797,-3.8862,-3.8975,-3.905,-3.9074,-3.9094,-3.9166,-3.9192,-3.8877,-3.8878,-3.8878,0,-3.8303,-3.8402,-3.8367,-3.8447,-3.8477,-3.8409,-3.8505,-3.8527,-3.8572,-3.8595,-3.8545,-3.8673,-3.8688,-3.8818,-3.8866,-3.8889,-3.8916,-3.8859,-3.9073,-3.9093,-3.9112,-3.918,-3.9207,-3.8885,-3.8885,-3.8884,-3.8883,0,-3.8522,-3.8592,-3.8664,-3.871,-3.8748,-3.8836,-3.8816,-3.886,-3.8832,-3.8827,-3.8932,-3.8948,-3.9005,-3.9034,-3.9007,-3.9162,-3.9133,-3.9079,-3.8989,-3.9149,-3.9212,-3.9238,-3.8897,-3.8894,-3.8892,-3.889,0,0,-3.8775,-3.8802,-3.8829,-3.885,-3.8878,-3.8932,-3.9018,-3.9074,-3.9113,-3.9147,-3.922,-3.9309,-3.926,-3.9289,-3.9265,-3.9331,-3.9488,-3.9268,-3.9268,-3.9309,-3.9661,-3.9702,-3.9732,-3.9458,-3.9462,-3.9466,-3.9659,0,-3.8958,-3.9105,-3.9077,-3.9221,-3.9286,-3.9225,-3.93,-3.9327,-3.9325,-3.9382,-3.938,-3.9445,-3.9374,-3.9392,-3.9454,-3.9455,-3.9558,-3.9441,-3.9526,-3.9529,-3.952,-3.9765,-3.9808,-3.9988,-3.9683,-3.9687,-3.969,0,-3.919,-3.9233,-3.9384,-3.9404,-3.943,-3.9498,-3.9549,-3.9603,-3.9633,-3.9628,-3.9662,-3.9627,-3.9715,-3.9624,-3.9746,-3.9668,-3.9701,-3.9708,-3.9714,-3.972,-3.9619,-3.9779,-4.0045,-4.0072,-3.9728,-3.9725,-3.9723,0,-3.9361,-3.9457,-3.956,-3.958,-3.9605,-3.9655,-3.9669,-3.9693,-3.973,-3.9774,-3.9798,-3.9853,-3.9883,-3.9927,-3.9908,-3.9844,-4.0035,-3.9942,-4.0034,-4.0035,-4.0076,-4.0074,-4.0352,-4.0098,-4.0098,-4.0097,-4.0097,0,-3.9567,-3.9662,-3.9637,-3.9701,-3.9806,-3.9775,-3.9881,-3.9887,-3.9911,-3.9975,-3.9926,-3.9989,-3.996,-4.0021,-4.0007,-4.0111,-4.0125,-4.0124,-4.012,-4.0129,-4.0129,-4.015,-4.0137,-4.0104,-4.0103,-4.0101,-4.01,0,-3.9775,-3.9762,-3.9871,-3.9887,-3.9894,-3.9971,-3.9985,-4.0046,-4.0042,-4.0125,-4.0143,-4.0137,-4.0207,-4.0193,-4.0269,-4.026,-4.0391,-4.0371,-4.0381,-4.0376,-4.0469,-4.0461,-4.077,-4.081,-4.053,-4.0533,-4.0535,0,-3.9907,-3.9979,-4.0004,-4.0044,-4.0061,-4.0126,-4.0163,-4.0136,-4.0177,-4.0219,-4.0275,-4.0341,-4.0391,-4.0506,-4.051,-4.0569,-4.055,-4.0655,-4.0558,-4.0566,-4.0553,-4.0549,-4.0556,-4.0673,-4.0677,-4.0679,-4.0681,0,-4.0145,-4.0135,-4.019,-4.0244,-4.029,-4.0331,-4.0368,-4.0404,-4.0381,-4.043,-4.0501,-4.054,-4.062,-4.0686,-4.0742,-4.0757,-4.0717,-4.0712,-4.0736,-4.0746,-4.075,-4.075,-4.0433,-4.0704,-4.0702,-4.07,-4.0699,-4.0698,-4.0319,-4.0381,-4.0408,-4.0472,-4.0497,-4.0534,-4.0592,-4.0596,-4.0654,-4.0716,-4.0697,-4.0779,-4.081,-4.0881,-4.0903,-4.0967,-4.0928,-4.0964,-4.0973,-4.0982,-4.0994,-4.074,-4.0977,-4.0977,-4.0976,-4.0976,-4.0975,0,-4.0554,-4.057,-4.0629,-4.0682,-4.0733,-4.069,-4.073,-4.0776,-4.0847,-4.088,-4.0931,-4.1014,-4.1079,-4.1089,-4.1151,-4.1201,-4.1185,-4.1219,-4.1215,-4.1219,-4.1024,-4.0997,-4.1231,-4.1231,-4.1231,-4.1231,-4.1231,-4.1231,-4.0682,-4.0785,-4.078,-4.0896,-4.0911,-4.0989,-4.1016,-4.105,-4.1076,-4.1171,-4.1224,-4.123,-4.1255,-4.1319,-4.1378,-4.1379,-4.1405,-4.1446,-4.1441,-4.1258,-4.1233,-4.1208,-4.1183,-4.1452,-4.1452,-4.163,-4.1632,-4.1633]},{"header":{"parameterUnit":"m.s-1","parameterCategory":1,"la1":30.2991,"la2":30.254,"lo1":-89.0895,"lo2":-89.0444,"dy":0.0017,"dx":0.0017,"nx":28,"ny":28,"refTime":"2025-08-31T09:00:00:Z","depth":0,"parameterNumber":3,"parameterNumberName":"V-component_of_WINDS"},"data":[0,0,0,0,0,0,0,0,0,0,0,0,0,0,0,0,0,0,0,0,0,0,0,0,0,0,0,0,0,0,0,0,0,0,0,0,0,0,0,0,0,0,0,0,0,0,0,0,0,0,0,0,0,0,0,0,0,0,1.6026,1.6026,0,1.6043,1.6044,1.6044,1.6125,1.6127,1.6129,1.6131,1.6142,1.6141,1.6139,0,0,0,0,0,0,0,0,0,0,0,0,0,1.6057,1.6056,1.6026,1.6026,1.6026,1.6043,1.6044,1.6044,1.6125,1.6128,1.613,1.6132,1.6143,1.6141,1.6139,0,0,0,0,0,0,0,0,0,0,0,0,0,1.6055,1.6055,1.6026,1.6069,1.6073,1.6043,1.6044,1.6044,1.6125,1.6128,1.613,1.6133,1.6143,1.6141,1.6139,1.6066,0,0,1.6132,1.6131,0,0,0,0,0,0,0,0,1.6055,1.6054,1.6062,1.6066,1.607,1.6085,1.6059,1.6051,1.6124,1.6105,1.6131,1.6135,1.612,1.612,1.6117,1.6067,1.6067,1.6132,1.613,1.6129,1.6129,0,0,0,0,0,0,0,1.6055,1.6054,1.6032,1.6062,1.6067,1.6086,1.6089,1.6058,1.6096,1.6107,1.6113,1.6114,1.6123,1.6119,1.6118,1.6068,1.6132,1.613,1.6128,1.6127,1.5959,1.5956,0,0,0,0,0,0,1.605,1.6053,1.6032,1.6033,1.607,1.6083,1.6086,1.6077,1.6096,1.6102,1.6112,1.6118,1.6121,1.612,1.6118,1.6035,1.6129,1.6127,1.6126,1.5962,1.5959,1.5955,0,0,0,0,0,0,1.605,1.6047,1.6031,1.6045,1.6044,1.6079,1.6069,1.6076,1.6072,1.61,1.6107,1.6101,1.6124,1.6122,1.6079,1.6036,1.6126,1.6124,1.5966,1.5961,1.5957,1.5866,0,0,0,0,0,0,1.6051,1.6047,1.6021,1.6044,1.6043,1.5993,1.6066,1.6075,1.6069,1.6077,1.6092,1.6097,1.6126,1.6082,1.6077,1.6035,1.6122,1.597,1.5964,1.5958,1.5873,1.5859,1.5847,0,0,0,0,0,1.6052,1.5993,1.6019,1.6016,1.6012,1.599,1.599,1.6027,1.6065,1.6038,1.6057,1.6096,1.6042,1.6077,1.6072,1.6028,1.5973,1.5966,1.5959,1.5879,1.5862,1.5847,0,0,0,0,0,0,1.5961,1.5997,1.6026,1.5974,1.5979,1.6004,1.5972,1.6007,1.5999,1.6007,1.6051,1.6054,1.6004,1.6013,1.6051,1.5959,1.6014,1.6006,1.5955,1.5939,1.5927,1.5924,1.612,0,0,0,0,0,1.5936,1.5918,1.5949,1.59,1.5901,1.5936,1.5928,1.5956,1.5962,1.5964,1.5979,1.5981,1.5965,1.5953,1.594,1.5876,1.5879,1.5843,1.583,1.5819,1.5811,1.5777,1.5761,1.5932,1.5932,1.5933,0,0,1.5882,1.5899,1.5884,1.5882,1.5889,1.5867,1.5937,1.5911,1.5894,1.5959,1.592,1.5932,1.5937,1.5884,1.5861,1.5889,1.5765,1.5811,1.5802,1.5799,1.5768,1.5752,1.5737,1.5928,1.5929,1.5929,0,0,1.5772,1.5784,1.5744,1.5751,1.5762,1.5786,1.5777,1.5798,1.5808,1.5771,1.5819,1.58,1.5771,1.5773,1.577,1.5664,1.5699,1.5658,1.5588,1.5555,1.5542,1.553,1.549,1.5476,1.565,1.565,1.565,0,1.5703,1.5674,1.5719,1.569,1.5687,1.5748,1.5707,1.5711,1.5715,1.5711,1.5743,1.571,1.5718,1.5665,1.564,1.5636,1.5625,1.5655,1.5541,1.5529,1.5519,1.5481,1.5467,1.5645,1.5645,1.5646,1.5646,0,1.5588,1.5567,1.5533,1.5539,1.5533,1.5498,1.5535,1.5523,1.5553,1.5573,1.5533,1.5546,1.5536,1.5527,1.5554,1.5478,1.5495,1.5533,1.5589,1.5496,1.5462,1.5448,1.5637,1.5639,1.5641,1.5642,0,0,1.5418,1.5452,1.5439,1.5442,1.5461,1.5444,1.5412,1.5405,1.5393,1.5395,1.5368,1.5344,1.538,1.5376,1.5405,1.5376,1.5289,1.5418,1.5419,1.5392,1.5205,1.5175,1.5157,1.5315,1.5312,1.531,1.5204,0,1.5312,1.5261,1.5301,1.5241,1.5222,1.5281,1.5253,1.526,1.5278,1.5263,1.5283,1.5264,1.5314,1.5313,1.5287,1.5305,1.5252,1.5314,1.5287,1.5285,1.5281,1.514,1.5107,1.5006,1.5191,1.5189,1.5187,0,1.5181,1.518,1.5119,1.5142,1.5136,1.511,1.5107,1.5093,1.5102,1.5117,1.5115,1.5151,1.512,1.5177,1.5133,1.5174,1.5166,1.5173,1.517,1.5167,1.5229,1.513,1.4975,1.4959,1.5167,1.5169,1.517,0,1.5062,1.5045,1.5007,1.5009,1.5035,1.5015,1.5024,1.5037,1.503,1.5028,1.5024,1.5016,1.5011,1.5004,1.5037,1.5076,1.4988,1.5048,1.4998,1.4997,1.4974,1.4975,1.4813,1.4973,1.4973,1.4973,1.4974,0,1.4938,1.4898,1.4954,1.493,1.4886,1.4933,1.4888,1.4904,1.4914,1.4893,1.4944,1.4922,1.4968,1.4951,1.4977,1.4936,1.4934,1.4944,1.495,1.4938,1.4936,1.4931,1.4938,1.4969,1.497,1.4971,1.4972,0,1.4796,1.4832,1.4794,1.4823,1.483,1.4796,1.482,1.4798,1.4822,1.4794,1.479,1.4825,1.4808,1.4841,1.4827,1.4845,1.4787,1.4805,1.4784,1.4788,1.4736,1.474,1.4563,1.4542,1.4717,1.4715,1.4714,0,1.4713,1.4684,1.4711,1.4702,1.4709,1.4693,1.4688,1.4733,1.4725,1.4734,1.471,1.4698,1.469,1.466,1.4682,1.4672,1.469,1.4629,1.4688,1.4676,1.4686,1.4687,1.4684,1.4615,1.4613,1.4612,1.461,0,1.4562,1.4582,1.4573,1.4571,1.4564,1.4564,1.4567,1.4556,1.4603,1.4591,1.4576,1.457,1.4558,1.4544,1.454,1.4548,1.4585,1.4592,1.458,1.4565,1.4553,1.4557,1.4748,1.4595,1.4597,1.4598,1.4598,1.4599,1.4446,1.4423,1.4439,1.4427,1.4435,1.4438,1.4419,1.4441,1.4429,1.4424,1.4451,1.4429,1.444,1.4438,1.4443,1.4425,1.4452,1.4434,1.4429,1.4423,1.4414,1.4558,1.4424,1.4425,1.4425,1.4426,1.4426,0,1.4296,1.431,1.4299,1.4303,1.4294,1.4335,1.4341,1.433,1.4311,1.4319,1.4311,1.4293,1.428,1.4303,1.4294,1.4275,1.4293,1.4271,1.4272,1.4273,1.4391,1.4402,1.4258,1.4258,1.4258,1.4258,1.4258,1.4258,1.4216,1.4179,1.4201,1.4169,1.4183,1.4164,1.4163,1.4165,1.4172,1.415,1.4141,1.4157,1.4171,1.4164,1.4153,1.4161,1.4154,1.4126,1.4138,1.4248,1.4264,1.428,1.429,1.4124,1.4124,1.4021,1.402,1.4019]}]]